Port Angeles, WA
on Sunday, February 3, 2013

Sunday
Previous Day Next Day
Daily Summary
 ActualAverageRecord
Temperature
Mean Temperature °F °F  
Max Temperature 48°F 46°F 65°F (1963)
Min Temperature 36°F 34°F 12°F (1989)
Degree Days
Heating Degree Days 23    
Moisture
Dew Point 39°F   
Average Humidity 91    
Maximum Humidity 100    
Minimum Humidity 71    
Precipitation
Precipitation 0.00 in in in ()
Wind
Wind Speed 3 mph   
Max Wind Speed 7 mph   
Max Gust Speed mph   
Visibility 7 miles   
Events Fog , Rain   
Averages and records for this station are not official NWS values.
Key: T is trace of precipitation, MM is missing value
Source: NWS Daily Summary
Seasonal Weather Averages
Time(PST)TemperatureDew PointHumidity Pressure Visibility Wind DirectionWind SpeedGust SpeedPrecipitationEvents Conditions
12:46 AM 37.9°F 37.0°F 97% 30.28 in 0.5 miles SW 3.5 mph - N/A Fog Fog
12:53 AM 37.9°F 37.0°F 97% 30.30 in 0.5 miles SW 5.8 mph - N/A Fog Fog
1:53 AM 39.0°F 37.0°F 93% 30.26 in 0.5 miles SSE 3.5 mph - N/A Fog Fog
2:02 AM 39.0°F 37.0°F 93% 30.26 in 0.2 miles South 4.6 mph - N/A Fog Fog
2:20 AM 39.0°F 37.0°F 93% 30.26 in 0.5 miles South 4.6 mph - N/A Fog Fog
2:53 AM 37.9°F 37.0°F 97% 30.26 in 0.2 miles SSW 4.6 mph - N/A Fog Fog
3:07 AM 37.9°F 37.0°F 97% 30.25 in 0.5 miles SW 4.6 mph - N/A Fog Fog
3:19 AM 37.9°F 37.0°F 97% 30.25 in 1.0 miles SSW 4.6 mph - N/A   Mist
3:31 AM 37.9°F 37.9°F 100% 30.26 in 3.0 miles Variable 3.5 mph - N/A   Overcast
3:53 AM 37.9°F 36.0°F 93% 30.26 in 4.0 miles Calm Calm - N/A   Overcast
4:04 AM 37.0°F 36.0°F 96% 30.26 in 1.5 miles Calm Calm - N/A   Overcast
4:13 AM 37.9°F 36.0°F 93% 30.26 in 0.5 miles Calm Calm - N/A Fog Fog
4:21 AM 37.9°F 37.0°F 97% 30.25 in 0.2 miles Calm Calm - N/A Fog Fog
4:42 AM 37.9°F 36.0°F 93% 30.25 in 0.5 miles ESE 4.6 mph - N/A Fog Fog
4:53 AM 37.9°F 36.0°F 93% 30.26 in 0.5 miles South 4.6 mph - N/A Fog Fog
5:11 AM 37.0°F 36.0°F 96% 30.25 in 2.0 miles South 5.8 mph - N/A   Overcast
5:15 AM 37.0°F 36.0°F 96% 30.25 in 3.0 miles South 6.9 mph - N/A   Overcast
5:51 AM 37.4°F 35.6°F 93% 30.27 in 10.0 miles SSW 3.5 mph - N/A   Overcast
5:53 AM 37.0°F 36.0°F 96% 30.27 in 10.0 miles SW 3.5 mph - N/A   Overcast
6:10 AM 36.0°F 33.1°F 89% 30.26 in 10.0 miles South 3.5 mph - N/A   Overcast
6:53 AM 37.0°F 35.1°F 93% 30.27 in 10.0 miles SW 4.6 mph - N/A   Overcast
7:53 AM 37.0°F 35.1°F 93% 30.27 in 10.0 miles WSW 6.9 mph - N/A   Mostly Cloudy
8:10 AM 37.0°F 35.1°F 93% 30.26 in 10.0 miles SW 6.9 mph - N/A   Scattered Clouds
8:53 AM 37.9°F 37.0°F 97% 30.27 in 10.0 miles SW 3.5 mph - N/A   Clear
9:53 AM 42.1°F 37.9°F 85% 30.26 in 10.0 miles Calm Calm - N/A   Clear
10:53 AM 44.1°F 39.0°F 82% 30.30 in 10.0 miles WSW 3.5 mph - N/A   Overcast
11:18 AM 45.0°F 37.9°F 76% 30.27 in 10.0 miles Calm Calm - N/A   Mostly Cloudy
11:53 AM 45.0°F 39.0°F 80% 30.29 in 10.0 miles Calm Calm - N/A   Mostly Cloudy
12:12 PM 46.0°F 39.9°F 79% 30.27 in 10.0 miles Calm Calm - N/A   Overcast
12:34 PM 48.0°F 39.9°F 74% 30.25 in 10.0 miles Calm Calm - N/A   Mostly Cloudy
12:53 PM 48.9°F 39.9°F 71% 30.25 in 10.0 miles Variable 3.5 mph - N/A   Mostly Cloudy
1:35 PM 48.0°F 39.9°F 74% 30.24 in 10.0 miles North 4.6 mph - N/A   Mostly Cloudy
1:53 PM 48.0°F 39.9°F 74% 30.24 in 10.0 miles NNE 3.5 mph - N/A   Overcast
2:53 PM 46.9°F 39.9°F 77% 30.25 in 10.0 miles Calm Calm - N/A   Overcast
3:05 PM 46.9°F 39.9°F 77% 30.24 in 10.0 miles Calm Calm - N/A   Overcast
3:53 PM 46.0°F 41.0°F 83% 30.25 in 10.0 miles Calm Calm - 0.00 in Rain Light Rain
4:53 PM 45.0°F 43.0°F 93% 30.24 in 10.0 miles Calm Calm - 0.00 in Rain Light Rain
5:00 PM 45.0°F 43.0°F 93% 30.23 in 10.0 miles Calm Calm - 0.00 in Rain Light Rain
5:07 PM 45.0°F 43.0°F 93% 30.22 in 10.0 miles Calm Calm - 0.00 in Rain Light Rain
5:53 PM 44.1°F 42.1°F 93% 30.23 in 10.0 miles Calm Calm - 0.00 in Rain Light Rain
6:53 PM 44.1°F 42.1°F 93% 30.23 in 9.0 miles Calm Calm - 0.00 in Rain Light Rain
7:53 PM 44.1°F 42.1°F 93% 30.22 in 10.0 miles Calm Calm - 0.00 in Rain Light Rain
8:53 PM 44.1°F 43.0°F 96% 30.22 in 10.0 miles Calm Calm - 0.00 in   Overcast
9:24 PM 44.1°F 42.1°F 93% 30.21 in 9.0 miles Calm Calm - N/A   Overcast
9:49 PM 44.6°F 42.8°F 93% 30.20 in 10.0 miles Calm Calm - N/A   Overcast
9:53 PM 44.1°F 42.1°F 93% 30.21 in 10.0 miles South 3.5 mph - N/A   Overcast
10:05 PM 44.1°F 42.1°F 93% 30.20 in 10.0 miles Calm Calm - N/A   Overcast
10:12 PM 44.1°F 42.1°F 93% 30.21 in 10.0 miles Calm Calm - N/A   Overcast
10:17 PM 44.1°F 42.1°F 93% 30.21 in 2.5 miles Calm Calm - N/A   Overcast
10:25 PM 43.0°F 42.1°F 97% 30.20 in 1.8 miles Calm Calm - N/A   Overcast
10:28 PM 43.0°F 41.0°F 93% 30.20 in 4.0 miles Calm Calm - N/A   Overcast
10:53 PM 43.0°F 41.0°F 93% 30.21 in 10.0 miles SSE 3.5 mph - N/A   Overcast
11:53 PM 41.0°F 39.9°F 96% 30.18 in 10.0 miles ESE 3.5 mph - N/A   Overcast
Moon Phase
Feb. 03 Feb. 10 Feb. 17 Feb. 25 Mar. 04
Sunrise:07:38 AM (PST) Moon Rise:01:14 AM (PST)2/3
Sunset:05:17 PM (PST) Moon Set:10:55 AM (PST)2/3

Copyright © 2014 The Weather Underground, Inc.